カタログに戻る

STARLINK-37803

運用中通信SSO
NORAD 69319·PAYLOAD·🇺🇸 United States

打ち上げ May 30, 2026 から Vandenberg Space Force Base

Loading…

次のパス (今後24時間)

TLE

最新Source: CelesTrak SupGP

元期: Sep 15, 2026, 03:24 UTC

1 69319C 26119Z   26258.14215278 -.00048169  00000+0 -14954-2 0  2582
2 69319  97.2823 283.0353 0000866  94.2266  44.2446 15.33461843    17

AllMySatでSTARLINK-37803をリアルタイム追跡

Download on the App Store